Weather History for KONZ - February, 2014

Change the Weather History Date:

Thursday, February 6, 2014

  Actual Average (KDTW) Record (KDTW)
Temperature  
Mean Temperature 11 °F 26 °F  
Max Temperature 19 °F 33 °F 58 °F (1938)
Min Temperature 3 °F 20 °F -7 °F (1895)
Degree Days  
Heating Degree Days 54 39  
Month to date heating degree days 234  
Since 1 July heating degree days 3754  
Cooling Degree Days 0 0  
Month to date cooling degree days 0  
Year to date cooling degree days 0  
Moisture  
Dew Point 5 °F    
Average Humidity 75    
Maximum Humidity 85    
Minimum Humidity 67    
Precipitation  
Precipitation 0.00 in 0.07 in 1.23 in (1911)
Month to date precipitation 0.39  
Year to date precipitation 2.35  
Snow  
Snow 0.00 in 0.40 in 12.30 in (1911)
Month to date snowfall 2.2  
Since 1 July snowfall 25.9  
Snow Depth -    
Sea Level Pressure  
Sea Level Pressure 30.31 in    
Wind  
Wind Speed 6 mph (SW)    
Max Wind Speed 20 mph    
Max Gust Speed 25 mph    
Visibility 10 miles    
Events Snow    
T = Trace of Precipitation, MM = Missing Value Source: NWS Daily Summary

Daily Weather History Graph

Daily Weather History Graph

Search for Another Location

Airport or City:

Trip Planner

Search our weather history database for the weather conditions in past years. The results will help you decide how hot, cold, wet, or windy it might be!

Date:

Astronomy

Feb. 06, 2014 Rise Set
Actual Time 7:40 AM EST 5:53 PM EST
Civil Twilight 7:10 AM EST 6:23 PM EST
Nautical Twilight 6:37 AM EST 6:56 PM EST
Astronomical Twilight 6:05 AM EST 7:29 PM EST
Moon 11:24 AM EST (2/6) 12:54 AM EST (2/6)
Length of Visible Light 11h 12m
Length of Day
10h 13m
Waxing Crescent, 49% of the Moon is Illuminated
Feb 6
Waxing Crescent
Feb 6
First Quarter
Feb 14
Full
Feb 22
Last Quarter
Mar 1
New

Hourly Weather History & Observations

Time (EST) Temp. Windchill Dew Point Humidity Pressure Visibility Wind Dir Wind Speed Gust Speed Precip Events Conditions
12:14 AM 8.6 °F - 3.2 °F 79% 30.33 in 10.0 mi Calm Calm - N/A   Clear
12:34 AM 6.8 °F -0.1 °F 3.2 °F 85% 30.33 in 10.0 mi West 3.5 mph - N/A   Clear
12:54 AM 10.4 °F - 6.8 °F 85% 30.33 in 10.0 mi Calm Calm - N/A   Clear
1:14 AM 10.4 °F - 6.8 °F 85% 30.33 in 10.0 mi Calm Calm - N/A   Clear
1:34 AM 10.4 °F - 6.8 °F 85% 30.33 in 10.0 mi Calm Calm - N/A   Clear
1:53 AM 8.6 °F 2.0 °F 5.0 °F 85% 30.33 in 10.0 mi West 3.5 mph - N/A   Clear
2:14 AM 8.6 °F - 5.0 °F 85% 30.33 in 10.0 mi Calm Calm - N/A   Clear
2:34 AM 8.6 °F 2.0 °F 3.2 °F 79% 30.33 in 10.0 mi West 3.5 mph - N/A   Scattered Clouds
2:54 AM 10.4 °F 4.0 °F 5.0 °F 79% 30.34 in 10.0 mi West 3.5 mph - N/A   Scattered Clouds
3:14 AM 8.6 °F 0.1 °F 5.0 °F 85% 30.33 in 10.0 mi West 4.6 mph - N/A   Clear
3:34 AM 8.6 °F 0.1 °F 3.2 °F 79% 30.33 in 10.0 mi WNW 4.6 mph - N/A   Scattered Clouds
3:54 AM 8.6 °F 2.0 °F 3.2 °F 79% 30.34 in 10.0 mi West 3.5 mph - N/A   Mostly Cloudy
4:14 AM 10.4 °F 4.0 °F 5.0 °F 79% 30.33 in 10.0 mi WNW 3.5 mph - N/A   Overcast
4:34 AM 10.4 °F 0.8 °F 5.0 °F 79% 30.34 in 10.0 mi West 5.8 mph - N/A   Overcast
4:54 AM 10.4 °F 0.8 °F 5.0 °F 79% 30.34 in 10.0 mi West 5.8 mph - N/A   Overcast
5:14 AM 8.6 °F 2.0 °F 5.0 °F 85% 30.34 in 10.0 mi West 3.5 mph - N/A   Overcast
5:34 AM 8.6 °F - 3.2 °F 79% 30.34 in 10.0 mi Calm Calm - N/A   Mostly Cloudy
5:54 AM 8.6 °F - 3.2 °F 79% 30.34 in 10.0 mi Calm Calm - N/A   Scattered Clouds
6:14 AM 8.6 °F - 3.2 °F 79% 30.34 in 10.0 mi Calm Calm - N/A   Mostly Cloudy
6:35 AM 6.8 °F - 3.2 °F 85% 30.33 in 10.0 mi Calm Calm - N/A   Mostly Cloudy
6:54 AM 6.8 °F - 1.4 °F 79% 30.33 in 10.0 mi Calm Calm - N/A   Mostly Cloudy
7:14 AM 5.0 °F - 1.4 °F 85% 30.33 in 10.0 mi Calm Calm - N/A   Overcast
7:34 AM 5.0 °F -2.1 °F 1.4 °F 85% 30.34 in 10.0 mi South 3.5 mph - N/A   Overcast
7:54 AM 6.8 °F -0.1 °F 3.2 °F 85% 30.35 in 10.0 mi WSW 3.5 mph - N/A Snow Light Snow
8:14 AM 8.6 °F 0.1 °F 5.0 °F 85% 30.35 in 10.0 mi West 4.6 mph - N/A Snow Light Snow
8:34 AM 8.6 °F 2.0 °F 5.0 °F 85% 30.35 in 10.0 mi SW 3.5 mph - N/A Snow Light Snow
8:54 AM 10.4 °F 2.2 °F 6.8 °F 85% 30.35 in 10.0 mi SW 4.6 mph - N/A Snow Light Snow
9:14 AM 12.2 °F 6.1 °F 6.8 °F 79% 30.34 in 10.0 mi SSW 3.5 mph - N/A Snow Light Snow
9:34 AM 12.2 °F 6.1 °F 6.8 °F 79% 30.34 in 10.0 mi South 3.5 mph - N/A Snow Light Snow
9:54 AM 12.2 °F 1.7 °F 8.6 °F 85% 30.34 in 10.0 mi South 6.9 mph - N/A   Overcast
10:14 AM 14.0 °F 2.9 °F 8.6 °F 79% 30.34 in 10.0 mi South 8.1 mph - N/A Snow Light Snow
10:34 AM 15.8 °F 5.1 °F 8.6 °F 73% 30.34 in 10.0 mi SSW 8.1 mph - N/A Snow Light Snow
10:54 AM 15.8 °F 5.1 °F 8.6 °F 73% 30.34 in 10.0 mi SSW 8.1 mph - N/A Snow Light Snow
11:14 AM 17.6 °F 6.4 °F 10.4 °F 73% 30.34 in 10.0 mi SW 9.2 mph - N/A Snow Light Snow
11:34 AM 17.6 °F 5.0 °F 10.4 °F 73% 30.34 in 7.0 mi SW 11.5 mph - N/A Snow Light Snow
11:54 AM 17.6 °F 4.3 °F 10.4 °F 73% 30.33 in 7.0 mi SSW 12.7 mph - N/A Snow Light Snow
12:14 PM 19.4 °F 7.2 °F 10.4 °F 68% 30.32 in 10.0 mi SSW 11.5 mph - N/A Snow Light Snow
12:34 PM 19.4 °F 8.6 °F 12.2 °F 74% 30.31 in 5.0 mi SSW 9.2 mph 16.1 mph N/A Snow Light Snow
12:54 PM 19.4 °F 6.6 °F 10.4 °F 68% 30.31 in 10.0 mi WSW 12.7 mph - N/A   Overcast
1:14 PM 19.4 °F 5.5 °F 10.4 °F 68% 30.29 in 10.0 mi SW 15.0 mph 19.6 mph N/A   Overcast
1:34 PM 19.4 °F 7.2 °F 12.2 °F 74% 30.28 in 10.0 mi SW 11.5 mph 24.2 mph N/A   Overcast
1:54 PM 19.4 °F 4.1 °F 10.4 °F 68% 30.27 in 10.0 mi SW 18.4 mph 24.2 mph N/A   Overcast
2:14 PM 19.4 °F 6.6 °F 10.4 °F 68% 30.27 in 7.0 mi WSW 12.7 mph 23.0 mph N/A Snow Light Snow
2:34 PM 19.4 °F 4.5 °F 10.4 °F 68% 30.26 in 10.0 mi SW 17.3 mph 20.7 mph N/A   Overcast
2:54 PM 19.4 °F 5.5 °F 10.4 °F 68% 30.25 in 10.0 mi WSW 15.0 mph 23.0 mph N/A   Overcast
3:14 PM 19.4 °F 5.0 °F 10.4 °F 68% 30.26 in 10.0 mi SW 16.1 mph 23.0 mph N/A   Overcast
3:34 PM 19.4 °F 5.0 °F 10.4 °F 68% 30.25 in 7.0 mi SW 16.1 mph 23.0 mph N/A Snow Light Snow
3:54 PM 19.4 °F 3.6 °F 10.4 °F 68% 30.25 in 5.0 mi SW 19.6 mph 24.2 mph N/A Snow Light Snow
4:14 PM 17.6 °F 3.7 °F 10.4 °F 73% 30.25 in 10.0 mi SW 13.8 mph 20.7 mph N/A Snow Light Snow
4:34 PM 17.6 °F 5.0 °F 8.6 °F 68% 30.25 in 10.0 mi SW 11.5 mph 20.7 mph N/A Snow Light Snow
4:54 PM 17.6 °F 7.3 °F 8.6 °F 68% 30.25 in 10.0 mi SW 8.1 mph 21.9 mph N/A   Mostly Cloudy
5:14 PM 15.8 °F 0.9 °F 6.8 °F 68% 30.25 in 10.0 mi SW 15.0 mph 25.3 mph N/A   Mostly Cloudy
5:34 PM 15.8 °F 2.1 °F 6.8 °F 68% 30.25 in 10.0 mi SW 12.7 mph 17.3 mph N/A   Scattered Clouds
5:54 PM 14.0 °F 1.2 °F 5.0 °F 67% 30.26 in 10.0 mi SW 10.4 mph 19.6 mph N/A   Clear
6:14 PM 12.2 °F -3.1 °F 3.2 °F 67% 30.26 in 10.0 mi SW 13.8 mph 20.7 mph N/A   Clear
6:34 PM 10.4 °F -4.8 °F 1.4 °F 67% 30.27 in 10.0 mi SW 12.7 mph 19.6 mph N/A   Clear
6:54 PM 10.4 °F -2.4 °F 1.4 °F 67% 30.27 in 10.0 mi WSW 9.2 mph - N/A   Clear
7:14 PM 10.4 °F -3.3 °F 1.4 °F 67% 30.27 in 10.0 mi WSW 10.4 mph 16.1 mph N/A   Clear
7:35 PM 8.6 °F -5.5 °F 1.4 °F 73% 30.27 in 10.0 mi WSW 10.4 mph - N/A   Mostly Cloudy
7:54 PM 8.6 °F -3.7 °F -0.4 °F 67% 30.27 in 10.0 mi WSW 8.1 mph - N/A   Overcast
8:14 PM 8.6 °F -7.0 °F -0.4 °F 67% 30.28 in 10.0 mi WSW 12.7 mph - N/A   Overcast
8:34 PM 6.8 °F -8.6 °F -0.4 °F 72% 30.28 in 10.0 mi WSW 11.5 mph 19.6 mph N/A   Overcast
8:54 PM 6.8 °F -6.9 °F -0.4 °F 72% 30.29 in 10.0 mi WSW 9.2 mph 18.4 mph N/A   Overcast
9:14 PM 6.8 °F -6.9 °F -0.4 °F 72% 30.30 in 10.0 mi WSW 9.2 mph - N/A   Overcast
9:34 PM 6.8 °F -6.9 °F -0.4 °F 72% 30.31 in 10.0 mi SW 9.2 mph - N/A   Overcast
9:54 PM 6.8 °F -8.6 °F -0.4 °F 72% 30.31 in 10.0 mi SW 11.5 mph 17.3 mph N/A   Overcast
10:14 PM 6.8 °F -8.6 °F -0.4 °F 72% 30.32 in 10.0 mi SW 11.5 mph 17.3 mph N/A   Overcast
10:34 PM 6.8 °F -7.8 °F -0.4 °F 72% 30.32 in 10.0 mi SW 10.4 mph - N/A   Overcast
10:54 PM 5.0 °F -10.8 °F -2.2 °F 72% 30.32 in 10.0 mi WSW 11.5 mph 17.3 mph N/A   Mostly Cloudy
11:14 PM 3.2 °F -13.9 °F -2.2 °F 78% 30.32 in 10.0 mi WSW 12.7 mph 17.3 mph N/A   Scattered Clouds
11:34 PM 3.2 °F -13.1 °F -2.2 °F 78% 30.31 in 10.0 mi WSW 11.5 mph 17.3 mph N/A   Mostly Cloudy
11:54 PM 3.2 °F -12.2 °F -2.2 °F 78% 30.31 in 10.0 mi WSW 10.4 mph - N/A   Overcast